Location: Manosque
(43.8357°N, 5.7909°E)
Time: 06:52:50
(UTC+01:00)

ISS - Pass Details

Date: 31 October 2019
Orbit: 412 x 421 km, 51.6° (Epoch: 22 November)

Event Time Altitude Azimuth Distance (km) Brightness Sun altitude
Exits shadow 06:30:21 10° 298° (WNW) 1,530 -1.5 -7.9°
Reaches altitude 10° 06:30:25 10° 299° (WNW) 1,509 -1.6 -7.9°
Maximum altitude 06:33:10 22° 353° (N) 972 -2.1 -7.4°
Drops below altitude 10° 06:35:54 10° 47° (NE) 1,507 -0.4 -6.9°
Sets 06:38:18 0° 63° (ENE) 2,370 0.9 -6.5°
